EW7234 Weather Reports


Display with metric or nautical units.
time (UTC)temp
F
wind
direction
speed
MPH
gust
MPH
rain 1hr
in
rain 24hr
in
rain mn
in
humidity
%
barometer
mb
20260906201613 88 222 5.0 12.0 0.00 1.08 1.08 53 1015.2
20260906201027 88 191 3.0 11.0 0.00 1.08 1.08 54 1015.2
20260906200527 87 174 3.0 11.0 0.00 1.08 1.08 55 1015.2
20260906200045 87 180 3.0 11.0 0.00 1.08 1.08 55 1015.2
20260906195524 87 207 3.0 9.0 0.00 1.08 1.08 56 1015.3
20260906195025 87 155 3.0 13.0 0.00 1.08 1.08 56 1015.4
20260906194557 87 183 3.0 13.0 0.00 1.08 1.08 56 1015.4
20260906194025 87 238 3.0 10.0 0.00 1.08 1.08 55 1015.5
20260906193526 86 164 2.0 12.0 0.00 1.08 1.08 57 1015.4
20260906193046 86 211 7.0 12.0 0.00 1.08 1.08 56 1015.5
20260906192525 86 242 3.0 10.0 0.00 1.08 1.08 57 1015.5
20260906192025 86 194 5.0 10.0 0.00 1.08 1.08 56 1015.6
20260906191544 86 139 3.0 10.0 0.00 1.08 1.08 57 1015.7
20260906191028 86 172 2.0 8.0 0.00 1.08 1.08 58 1015.6
20260906190525 86 263 3.0 12.0 0.00 1.08 1.08 59 1015.6
20260906190050 85 214 2.0 12.0 0.00 1.08 1.08 59 1015.8
20260906185524 86 217 3.0 10.0 0.00 1.08 1.08 59 1015.9
20260906185027 85 259 4.0 10.0 0.00 1.08 1.08 59 1015.9
20260906184547 85 166 1.0 8.0 0.00 1.08 1.08 61 1016.0
20260906184024 85 70 1.0 10.0 0.00 1.08 1.08 60 1016.0
20260906183526 84 155 3.0 11.0 0.00 1.08 1.08 59 1016.0
20260906183054 84 267 5.0 11.0 0.00 1.08 1.08 59 1016.2
20260906182525 85 203 4.0 10.0 0.00 1.08 1.08 59 1016.3
20260906182025 84 0 1.0 9.0 0.00 1.08 1.08 64 1016.3
20260906181550 84 286 2.0 10.0 0.00 1.08 1.08 64 1016.5
20260906181025 83 205 2.0 13.0 0.00 1.08 1.08 64 1016.5
20260906180526 83 208 3.0 13.0 0.00 1.08 1.08 64 1016.5
20260906180056 83 248 5.0 11.0 0.00 1.08 1.08 63 1016.6
20260906175526 83 225 3.0 12.0 0.00 1.08 1.08 66 1016.6
20260906175026 82 230 5.0 12.0 0.00 1.08 1.08 65 1016.7
20260906174603 82 158 3.0 12.0 0.00 1.08 1.08 67 1016.9
20260906174026 82 140 4.0 12.0 0.00 1.08 1.08 67 1016.9
20260906173525 81 225 6.0 12.0 0.00 1.08 1.08 66 1017.0
20260906173045 81 214 3.0 12.0 0.00 1.08 1.08 67 1017.0
20260906172528 81 259 4.0 12.0 0.00 1.08 1.08 66 1017.1
20260906172026 81 225 3.0 14.0 0.00 1.08 1.08 67 1017.1
20260906171544 81 222 6.0 14.0 0.00 1.08 1.08 65 1017.1
20260906171025 81 214 6.0 14.0 0.00 1.08 1.08 67 1017.1
20260906170525 81 208 3.0 11.0 0.00 1.08 1.08 68 1017.3
20260906170050 80 194 4.0 11.0 0.00 1.08 1.08 68 1017.4
20260906165527 80 169 1.0 12.0 0.00 1.08 1.08 69 1017.4
20260906165029 80 217 5.0 12.0 0.00 1.08 1.08 68 1017.4
20260906164545 80 233 4.0 13.0 0.00 1.08 1.08 69 1017.3
20260906164027 79 207 4.0 13.0 0.00 1.08 1.08 70 1017.4
20260906163525 79 217 3.0 11.0 0.00 1.08 1.08 72 1017.3
20260906163050 78 200 1.0 12.0 0.00 1.08 1.08 72 1017.3
20260906162528 78 224 3.0 12.0 0.00 1.08 1.08 73 1017.4
20260906162027 78 0 4.0 8.0 0.00 1.08 1.08 72 1017.3
20260906161548 78 0 2.0 7.0 0.00 1.08 1.08 74 1017.4
20260906161027 77 143 1.0 5.0 0.00 1.08 1.08 78 1017.5
20260906160524 77 257 1.0 6.0 0.00 1.08 1.08 78 1017.5
20260906160053 76 0 2.0 10.0 0.00 1.08 1.08 78 1017.5
20260906155527 76 217 3.0 10.0 0.00 1.08 1.08 79 1017.4
20260906155025 75 0 2.0 7.0 0.00 1.08 1.08 80 1017.3
20260906154545 75 242 1.0 7.0 0.00 1.08 1.08 81 1017.3
20260906154026 74 166 1.0 7.0 0.00 1.08 1.08 81 1017.3
20260906153528 74 211 1.0 6.0 0.00 1.08 1.08 83 1017.2
20260906153057 74 0 2.0 11.0 0.00 1.08 1.08 83 1017.2
20260906152527 73 0 2.0 11.0 0.00 1.08 1.08 83 1017.0
20260906152027 73 242 2.0 9.0 0.00 1.08 1.08 83 1017.0
20260906151543 73 183 4.0 8.0 0.00 1.08 1.08 83 1017.0
20260906151031 73 0 2.0 11.0 0.00 1.08 1.08 85 1017.0
20260906150526 73 116 3.0 11.0 0.00 1.08 1.08 84 1017.0
20260906150050 72 188 0.0 6.0 0.00 1.08 1.08 85 1017.1
20260906145526 72 0 1.0 5.0 0.00 1.08 1.08 86 1017.1
20260906145026 72 135 1.0 6.0 0.00 1.08 1.08 87 1017.1
20260906144543 71 78 1.0 6.0 0.00 1.08 1.08 88 1017.1
20260906144024 71 0 0.0 8.0 0.00 1.08 1.08 89 1017.0
20260906143527 70 106 1.0 9.0 0.00 1.08 1.08 88 1017.0
20260906143043 70 0 1.0 9.0 0.00 1.08 1.08 88 1017.0
20260906142525 70 0 0.0 4.0 0.00 1.08 1.08 89 1016.9
20260906142027 70 20 0.0 5.0 0.00 1.08 1.08 90 1016.9
20260906141555 70 0 0.0 5.0 0.00 1.08 1.08 92 1016.8
20260906141024 69 69 1.0 6.0 0.00 1.08 1.08 92 1016.9
20260906140529 68 84 3.0 6.0 0.00 1.08 1.08 93 1016.9
20260906140050 68 97 2.0 6.0 0.00 1.08 1.08 93 1017.0
20260906135525 67 87 3.0 6.0 0.00 1.08 1.08 94 1017.0
20260906135025 67 95 3.0 5.0 0.00 1.08 1.08 94 1016.8
20260906134548 67 86 2.0 4.0 0.00 1.08 1.08 94 1016.9
20260906134027 67 0 0.0 2.0 0.00 1.08 1.08 94 1016.9
20260906133525 67 0 0.0 1.0 0.00 1.08 1.08 94 1016.8
20260906133054 67 0 0.0 1.0 0.01 1.08 1.08 93 1016.9
20260906132524 67 0 0.0 2.0 0.01 1.08 1.08 93 1016.9
20260906132024 67 0 0.0 3.0 0.01 1.08 1.08 93 1016.5
20260906131542 67 0 1.0 5.0 0.01 1.08 1.08 93 1016.6
20260906131025 67 0 0.0 6.0 0.01 1.08 1.08 93 1016.3
20260906130525 67 1 3.0 6.0 0.01 1.08 1.08 93 1016.1
20260906130103 67 20 2.0 7.0 0.01 1.08 1.08 93 1016.2
20260906125527 67 352 1.0 10.0 0.01 1.08 1.08 94 1016.2
20260906125026 67 0 3.0 20.0 0.01 1.08 1.08 94 1015.7
20260906124553 66 82 11.0 20.0 0.01 1.08 1.08 95 1015.6
20260906124027 66 32 10.0 19.0 0.01 1.08 1.08 96 1014.7
20260906123525 66 136 5.0 13.0 0.01 1.08 1.08 97 1014.1
20260906123048 66 68 4.0 8.0 0.00 1.07 1.07 97 1014.0
20260906122528 65 131 2.0 8.0 0.00 1.07 1.07 97 1014.9
20260906122027 65 0 0.0 4.0 0.00 1.07 1.07 97 1015.4
20260906121548 65 0 0.0 0.0 0.00 1.07 1.07 97 1016.3
20260906121028 65 0 0.0 0.0 0.00 1.07 1.07 97 1016.3
20260906120526 65 0 0.0 1.0 0.00 1.07 1.07 97 1016.3
20260906120046 65 0 0.0 1.0 0.00 1.07 1.07 97 1016.3
20260906115531 65 0 0.0 1.0 0.00 1.07 1.07 97 1016.1
20260906115028 65 0 0.0 5.0 0.00 1.07 1.07 97 1015.9
20260906114549 65 0 1.0 11.0 0.00 1.07 1.07 97 1015.7
20260906114027 65 110 2.0 12.0 0.00 1.07 1.07 97 1015.6
20260906113527 65 143 3.0 12.0 0.00 1.07 1.07 97 1015.7
20260906113049 65 124 3.0 7.0 0.00 1.07 1.07 97 1015.8
20260906112533 65 0 1.0 8.0 0.01 1.07 1.07 97 1015.8
20260906112026 65 118 1.0 8.0 0.01 1.07 1.07 97 1015.9
20260906111555 65 0 1.0 6.0 0.01 1.07 1.07 97 1015.9
20260906111028 65 112 0.0 5.0 0.01 1.07 1.07 97 1015.7
20260906110529 65 84 1.0 5.0 0.01 1.07 1.07 97 1015.4
20260906110054 65 80 0.0 6.0 0.01 1.07 1.07 97 1015.4
20260906105528 65 0 1.0 12.0 0.01 1.07 1.07 97 1015.5
20260906105027 65 0 3.0 12.0 0.01 1.07 1.07 97 1015.6
20260906104550 65 87 0.0 9.0 0.02 1.07 1.07 97 1015.7
20260906104026 64 64 5.0 11.0 0.03 1.07 1.07 97 1014.6
20260906103530 65 193 3.0 17.0 0.03 1.07 1.07 96 1014.3
20260906103045 65 169 6.0 17.0 0.03 1.05 1.05 96 1014.5
20260906102528 65 89 5.0 17.0 0.05 1.05 1.05 96 1014.6
20260906102027 65 121 7.0 14.0 0.06 1.05 1.05 96 1013.9
20260906101544 65 207 5.0 14.0 0.10 1.05 1.05 96 1014.6
20260906101028 65 71 5.0 11.0 0.20 1.05 1.05 96 1014.6
20260906100525 65 98 5.0 12.0 0.40 1.05 1.05 96 1015.3
20260906100044 65 105 5.0 15.0 0.62 1.05 1.05 96 1015.4
20260906095527 65 105 6.0 15.0 0.68 1.05 1.05 96 1015.6
20260906095028 65 116 7.0 14.0 0.69 1.04 1.04 96 1015.6
20260906094548 65 82 5.0 11.0 0.73 1.04 1.04 96 1015.8
20260906094028 65 93 4.0 9.0 0.77 1.04 1.04 96 1016.3
20260906093528 66 139 0.0 8.0 0.80 1.04 1.04 96 1017.0
20260906093054 66 228 0.0 8.0 0.82 1.02 1.02 96 1017.3
20260906092524 65 89 2.0 8.0 0.81 1.01 1.01 96 1017.3
20260906092026 65 101 2.0 13.0 0.80 1.00 1.00 96 1017.9
20260906091555 65 84 11.0 13.0 0.75 0.95 0.95 95 1018.1
20260906091028 65 78 1.0 7.0 0.63 0.83 0.83 95 1019.0
20260906090543 65 299 1.0 8.0 0.43 0.62 0.62 92 1019.3
20260906085526 65 332 3.0 10.0 0.21 0.38 0.38 90 1018.5
20260906085024 65 293 4.0 11.0 0.22 0.36 0.36 89 1018.1
20260906084551 66 287 5.0 11.0 0.17 0.30 0.30 89 1017.6
20260906084024 66 267 4.0 8.0 0.14 0.26 0.26 88 1018.0
20260906083525 66 335 3.0 8.0 0.14 0.24 0.24 88 1017.5
20260906083045 66 314 2.0 10.0 0.15 0.20 0.20 88 1017.3
20260906082524 65 335 3.0 10.0 0.19 0.20 0.20 89 1017.4
20260906082024 65 314 5.0 10.0 0.20 0.20 0.20 89 1017.3
20260906081551 65 350 5.0 15.0 0.20 0.20 0.20 89 1017.5
20260906081025 65 302 6.0 15.0 0.19 0.19 0.19 90 1017.8
20260906080528 65 314 8.0 15.0 0.19 0.19 0.19 90 1018.1
20260906080045 65 289 10.0 18.0 0.18 0.18 0.18 90 1018.2
20260906075525 66 293 9.0 18.0 0.16 0.16 0.16 90 1018.3
20260906075024 66 294 8.0 20.0 0.13 0.13 0.13 90 1018.8
20260906074550 66 312 9.0 20.0 0.12 0.12 0.12 91 1018.7
20260906074024 66 332 9.0 23.0 0.12 0.12 0.12 92 1018.7
20260906073525 65 8 10.0 23.0 0.09 0.09 0.09 92 1018.5
20260906073055 66 309 8.0 20.0 0.04 0.04 0.04 92 1018.1
20260906072526 66 328 9.0 26.0 0.01 0.01 0.01 91 1018.6
20260906072026 66 304 14.0 26.0 0.00 0.00 0.00 90 1018.3
20260906071545 67 269 13.0 25.0 0.00 0.00 0.00 89 1018.0
20260906071025 68 311 11.0 25.0 0.00 0.00 0.00 87 1017.9
20260906070526 70 241 11.0 25.0 0.00 0.00 0.00 85 1018.3
20260906070054 72 249 11.0 23.0 0.00 0.00 0.00 78 1018.4
20260906065524 75 304 9.0 19.0 0.00 0.00 0.00 74 1018.3
20260906065023 76 272 1.0 4.0 0.00 0.00 0.00 85 1017.0
20260906064549 76 0 0.0 1.0 0.00 0.00 0.00 86 1016.1
20260906064024 76 0 0.0 6.0 0.00 0.00 0.00 86 1016.0
20260906063527 76 0 0.0 7.0 0.00 0.00 0.00 86 1015.9
20260906063046 76 41 4.0 7.0 0.00 0.00 0.00 86 1015.8
20260906062525 77 0 1.0 4.0 0.00 0.00 0.00 85 1015.6
20260906062024 77 0 0.0 2.0 0.00 0.00 0.00 85 1015.6
20260906061600 77 0 0.0 0.0 0.00 0.00 0.00 85 1015.5
20260906061024 77 0 0.0 3.0 0.00 0.00 0.00 85 1015.6
20260906060524 77 0 0.0 4.0 0.00 0.00 0.00 85 1015.5
20260906060044 77 0 0.0 6.0 0.00 0.00 0.00 85 1015.3
20260906055524 77 0 2.0 6.0 0.00 0.00 0.00 84 1015.3
20260906055024 77 83 1.0 6.0 0.00 0.00 0.00 84 1015.3
20260906054546 77 0 0.0 6.0 0.00 0.00 0.00 84 1015.3
20260906054025 78 77 4.0 6.0 0.00 0.00 0.00 83 1015.4
20260906053524 78 70 2.0 4.0 0.00 0.00 0.00 82 1015.5
20260906053050 78 69 2.0 4.0 0.00 0.00 0.00 82 1015.5
20260906052525 78 0 0.0 3.0 0.00 0.00 0.00 82 1015.3
20260906052025 78 0 0.0 2.0 0.00 0.00 0.00 82 1015.3
20260906051545 78 0 0.0 2.0 0.00 0.00 0.00 82 1015.3
20260906051027 78 0 0.0 2.0 0.00 0.00 0.00 82 1015.3
20260906050527 78 0 0.0 2.0 0.00 0.00 0.00 82 1015.1
20260906050109 78 0 0.0 3.0 0.00 0.00 0.00 82 1014.9
20260906045524 78 0 1.0 4.0 0.00 0.00 0.00 81 1014.7
20260906045025 79 0 1.0 4.0 0.00 0.00 0.00 81 1014.8
20260906044545 79 127 0.0 2.0 0.00 0.00 0.00 81 1014.9
20260906044026 79 0 0.0 4.0 0.00 0.00 0.00 80 1015.1
20260906043524 79 0 0.0 4.0 0.00 0.00 0.00 81 1015.2
20260906043058 79 87 1.0 4.0 0.00 0.00 0.00 80 1015.3
20260906042525 79 106 0.0 3.0 0.00 0.00 0.00 80 1015.3
20260906042025 79 87 0.0 7.0 0.00 0.00 0.00 80 1015.4
20260906041544 79 0 2.0 8.0 0.00 0.00 0.00 80 1015.5
20260906041026 79 0 1.0 8.0 0.00 0.00 0.00 80 1015.6
20260906040524 79 86 5.0 8.0 0.00 0.00 0.00 80 1015.6
20260906040109 79 100 1.0 5.0 0.00 0.00 0.00 80 1015.6
20260906035527 79 93 0.0 6.0 0.00 0.00 0.00 79 1015.7
20260906035025 79 91 1.0 7.0 0.00 0.00 0.00 79 1015.5
20260906034545 79 75 3.0 7.0 0.00 0.00 0.00 79 1015.6
20260906034024 80 84 4.0 7.0 0.00 0.00 0.00 78 1015.6
20260906033524 80 81 4.0 7.0 0.00 0.00 0.00 77 1015.4
20260906033045 81 83 5.0 7.0 0.00 0.00 0.00 76 1015.4
20260906032524 81 84 1.0 5.0 0.00 0.00 0.00 76 1015.4
20260906032024 81 110 1.0 5.0 0.00 0.00 0.00 76 1015.3
20260906031543 81 117 0.0 4.0 0.00 0.00 0.00 76 1015.2
20260906031027 81 0 0.0 4.0 0.00 0.00 0.00 76 1015.1
20260906030523 80 51 0.0 4.0 0.00 0.00 0.00 76 1015.1
20260906030057 80 0 0.0 4.0 0.00 0.00 0.00 76 1014.9
20260906025524 80 93 0.0 5.0 0.00 0.00 0.00 76 1014.8
20260906025025 81 83 1.0 7.0 0.00 0.00 0.00 76 1014.7
20260906024547 81 94 1.0 7.0 0.00 0.00 0.00 75 1014.6
20260906024025 81 97 0.0 6.0 0.00 0.00 0.00 75 1014.5
20260906023525 81 142 1.0 6.0 0.00 0.00 0.00 75 1014.5
20260906023101 81 0 0.0 5.0 0.00 0.00 0.00 74 1014.5
20260906022525 81 81 1.0 5.0 0.00 0.00 0.00 73 1014.3
20260906022025 81 113 0.0 5.0 0.00 0.00 0.00 72 1014.3
20260906021544 81 0 1.0 5.0 0.00 0.00 0.00 72 1014.3
20260906021024 81 110 1.0 5.0 0.00 0.00 0.00 72 1014.3
20260906020524 82 0 2.0 5.0 0.00 0.00 0.00 71 1014.4
20260906020051 82 0 1.0 5.0 0.00 0.00 0.00 71 1014.4
20260906015525 82 86 2.0 6.0 0.00 0.00 0.00 70 1014.6
20260906015025 82 0 1.0 6.0 0.00 0.00 0.00 70 1014.7
20260906014556 82 113 2.0 7.0 0.00 0.00 0.00 69 1014.8
20260906014024 82 63 3.0 8.0 0.00 0.00 0.00 69 1014.8
20260906013525 83 93 4.0 8.0 0.00 0.00 0.00 68 1014.6
20260906013044 83 90 3.0 6.0 0.00 0.00 0.00 68 1014.5
20260906012527 83 0 0.0 6.0 0.00 0.00 0.00 67 1014.6
20260906012024 83 95 2.0 6.0 0.00 0.00 0.00 67 1014.6
20260906011553 83 83 1.0 6.0 0.00 0.00 0.00 66 1014.6
20260906011025 83 130 0.0 6.0 0.00 0.00 0.00 66 1014.7
20260906010526 83 0 1.0 10.0 0.00 0.00 0.00 65 1014.6
20260906010044 84 0 3.0 10.0 0.00 0.00 0.00 64 1014.6
20260906005528 84 98 2.0 5.0 0.00 0.00 0.00 64 1014.8
20260906005025 84 100 2.0 7.0 0.00 0.00 0.00 63 1014.8
20260906004542 84 95 0.0 8.0 0.00 0.00 0.00 62 1014.9
20260906004031 85 86 3.0 8.0 0.00 0.00 0.00 62 1014.9
20260906003530 85 139 2.0 9.0 0.00 0.00 0.00 61 1014.9
20260906003047 85 86 4.0 9.0 0.00 0.00 0.00 60 1014.9
20260906002524 85 94 4.0 12.0 0.00 0.00 0.00 60 1014.7
20260906002025 85 78 6.0 14.0 0.00 0.00 0.00 59 1014.6
20260906001544 85 72 5.0 14.0 0.00 0.00 0.00 58 1014.5
20260906001025 86 103 5.0 11.0 0.00 0.00 0.00 58 1014.3
20260906000525 86 86 3.0 11.0 0.00 0.00 0.00 58 1014.3
20260906000044 86 73 6.0 11.0 0.00 0.00 0.00 57 1014.4
20260905235530 87 106 3.0 11.0 0.00 0.00 0.00 57 1014.4
20260905235027 87 86 6.0 11.0 0.00 0.00 0.00 56 1014.4
20260905234602 87 103 4.0 12.0 0.00 0.00 0.00 55 1014.3
20260905234024 87 0 6.0 15.0 0.00 0.00 0.00 54 1014.4
20260905233525 88 113 6.0 16.0 0.00 0.00 0.00 54 1014.3
20260905233044 88 110 8.0 16.0 0.00 0.00 0.00 53 1014.2
20260905232525 88 64 6.0 16.0 0.00 0.00 0.00 52 1014.1
20260905232026 89 80 7.0 16.0 0.00 0.00 0.00 52 1014.0
20260905231547 89 79 4.0 15.0 0.00 0.00 0.00 52 1014.0
20260905231026 89 102 3.0 14.0 0.00 0.00 0.00 52 1014.0
20260905230524 89 112 5.0 14.0 0.00 0.00 0.00 52 1013.9
20260905230045 89 118 6.0 13.0 0.00 0.00 0.00 52 1013.9
20260905225525 89 101 5.0 17.0 0.00 0.00 0.00 51 1013.7
20260905225025 89 79 8.0 17.0 0.00 0.00 0.00 50 1013.7
20260905224559 90 80 5.0 12.0 0.00 0.00 0.00 50 1013.6
20260905224027 90 169 2.0 13.0 0.00 0.00 0.00 51 1013.6
20260905223529 90 114 6.0 15.0 0.00 0.00 0.00 51 1013.5
20260905223047 90 71 4.0 16.0 0.00 0.00 0.00 52 1013.3
20260905222526 90 91 5.0 18.0 0.00 0.00 0.00 53 1013.3
20260905222026 90 79 9.0 19.0 0.00 0.00 0.00 53 1013.3
20260905221544 90 77 8.0 19.0 0.00 0.00 0.00 54 1013.5
20260905221025 89 129 7.0 16.0 0.00 0.00 0.00 54 1013.3
20260905220526 90 63 6.0 14.0 0.00 0.00 0.00 54 1013.4
20260905220044 90 85 4.0 19.0 0.00 0.00 0.00 55 1013.5
20260905215526 89 91 9.0 19.0 0.00 0.00 0.00 54 1013.5
20260905215029 90 86 9.0 18.0 0.00 0.00 0.00 54 1013.5
20260905214550 90 98 6.0 17.0 0.00 0.00 0.00 53 1013.7
20260905214026 89 214 7.0 18.0 0.00 0.00 0.00 53 1013.8
20260905213525 90 77 6.0 19.0 0.00 0.00 0.00 52 1013.8
20260905213044 89 36 9.0 19.0 0.00 0.00 0.00 52 1014.1
20260905212524 89 41 7.0 17.0 0.00 0.00 0.00 52 1014.2
20260905212027 89 179 4.0 21.0 0.00 0.00 0.00 52 1014.4
20260905211543 89 73 10.0 21.0 0.00 0.00 0.00 51 1014.4
20260905211026 88 120 11.0 19.0 0.00 0.00 0.00 52 1014.5
20260905210525 88 69 13.0 19.0 0.00 0.00 0.00 52 1014.6
20260905210049 88 79 8.0 15.0 0.00 0.00 0.00 53 1014.7
20260905205524 88 105 7.0 15.0 0.00 0.00 0.00 54 1014.6
20260905205024 88 107 7.0 16.0 0.00 0.00 0.00 53 1014.7
20260905204546 89 180 6.0 16.0 0.00 0.00 0.00 52 1014.8
20260905204024 88 86 7.0 16.0 0.00 0.00 0.00 54 1014.9
20260905203527 88 92 8.0 16.0 0.00 0.00 0.00 55 1014.8
20260905203050 87 86 6.0 17.0 0.00 0.00 0.00 55 1014.9
20260905202529 87 95 8.0 17.0 0.00 0.00 0.00 54 1014.9
20260905202025 87 113 5.0 18.0 0.00 0.00 0.00 55 1015.0